F5OZP-13 Weather Reports


time (UTC)temp
C
wind
direction
speed
KPH
gust
KPH
rain 1hr
cm
rain 24hr
cm
rain mn
cm
humidity
%
barometer
mb
20260507213356 12 0.0 0.0 0.00 0.00 0.00 99 1012.4
20260507212839 12 0.0 0.0 0.00 0.00 0.00 99 1012.5
20260507212331 12 0.0 0.0 0.00 0.00 0.00 99 1012.4
20260507211823 13 0.0 0.0 0.00 0.00 0.00 99 1012.3
20260507211315 13 0.0 0.0 0.00 0.00 0.00 99 1012.3
20260507210811 13 0.0 0.0 0.00 0.00 0.00 99 1012.3
20260507210311 13 0.0 0.0 0.00 0.00 0.00 99 1012.3
20260507205755 13 0.0 0.0 0.00 0.00 0.00 99 1012.3
20260507205247 13 0.0 0.0 0.00 0.00 0.00 99 1012.3
20260507204739 13 0.0 0.0 0.00 0.00 0.00 99 1012.3
20260507204230 13 0.0 0.0 0.00 0.00 0.00 99 1012.2
20260507203722 14 0.0 0.0 0.00 0.00 0.00 99 1012.2
20260507203222 14 0.0 0.0 0.00 0.00 0.00 99 1012.2
20260507202706 14 0.0 0.0 0.00 0.00 0.00 99 1012.2
20260507202158 14 0.0 0.0 0.00 0.00 0.00 99 1012.1
20260507201649 15 0.0 0.0 0.00 0.00 0.00 99 1012.1
20260507201146 15 0.0 0.0 0.00 0.00 0.00 99 1012.2
20260507200638 15 0.0 0.0 0.00 0.00 0.00 99 1012.1
20260507200138 15 0.0 0.0 0.00 0.00 0.00 99 1012.1
20260507195621 15 0.0 0.0 0.00 0.00 0.00 99 1012.0
20260507195113 15 0.0 0.0 0.00 0.00 0.00 99 1012.0
20260507194605 15 0.0 0.0 0.00 0.00 0.00 99 1011.9
20260507194057 15 0.0 0.0 0.00 0.00 0.00 99 1011.9
20260507193549 15 0.0 0.0 0.00 0.00 0.00 99 1011.8
20260507193049 15 0.0 0.0 0.00 0.00 0.00 99 1011.7
20260507192532 15 0.0 0.0 0.00 0.00 0.00 99 1011.6
20260507192024 15 0.0 0.0 0.00 0.00 0.00 99 1011.7
20260507191516 15 0.0 0.0 0.00 0.00 0.00 99 1011.6
20260507191013 16 0.0 0.0 0.00 0.00 0.00 99 1011.7
20260507190504 16 0.0 0.0 0.00 0.00 0.00 99 1011.6
20260507190005 16 0.0 0.0 0.00 0.00 0.00 99 1011.6
20260507185448 16 0.0 0.0 0.00 0.00 0.00 99 1011.6
20260507184939 17 0.0 0.0 0.00 0.00 0.00 99 1011.5
20260507184431 17 0.0 0.0 0.00 0.00 0.00 99 1011.5
20260507183923 17 0.0 0.0 0.00 0.00 0.00 99 1011.4
20260507183415 18 0.0 0.0 0.00 0.00 0.00 99 1011.4
20260507182915 18 0.0 0.0 0.00 0.00 0.00 99 1011.3
20260507182359 18 0.0 0.0 0.00 0.00 0.00 99 1011.2
20260507181850 19 0.0 0.0 0.00 0.00 0.00 99 1011.1
20260507181342 20 0.0 0.0 0.00 0.00 0.00 99 1011.1
20260507180839 20 0.0 0.0 0.00 0.00 0.00 99 1011.1
20260507180331 20 0.0 0.0 0.00 0.00 0.00 99 1011.0
20260507175831 20 0.0 0.0 0.00 0.00 0.00 99 1011.0
20260507175314 20 0.0 0.0 0.00 0.00 0.00 99 1011.1
20260507174806 20 0.0 0.0 0.00 0.00 0.00 99 1011.1
20260507174258 20 0.0 0.0 0.00 0.00 0.00 99 1011.1
20260507173750 20 0.0 0.0 0.00 0.00 0.00 99 1011.1
20260507173242 21 0.0 0.0 0.00 0.00 0.00 99 1011.2
20260507172742 21 0.0 0.0 0.00 0.00 0.00 99 1011.3
20260507172226 21 0.0 0.0 0.00 0.00 0.00 99 1011.3
20260507171717 21 0.0 0.0 0.00 0.00 0.00 99 1011.4
20260507171209 22 0.0 0.0 0.00 0.00 0.00 99 1011.4
20260507170701 22 0.0 0.0 0.00 0.00 0.00 93 1011.3
20260507170153 22 0.0 0.0 0.00 0.00 0.00 99 1011.4
20260507165653 23 0.0 0.0 0.00 0.00 0.00 99 1011.4
20260507165136 23 0.0 0.0 0.00 0.00 0.00 94 1011.5
20260507164628 23 0.0 0.0 0.00 0.00 0.00 84 1011.4
20260507164120 23 0.0 0.0 0.00 0.00 0.00 83 1011.5
20260507163612 23 0.0 0.0 0.00 0.00 0.00 90 1011.5
20260507163104 24 0.0 0.0 0.00 0.00 0.00 49 1011.5
20260507162604 25 0.0 0.0 0.00 0.00 0.00 43 1011.5
20260507162048 25 0.0 0.0 0.00 0.00 0.00 86 1011.5
20260507161540 25 0.0 0.0 0.00 0.00 0.00 99 1011.6
20260507161036 21 0.0 0.0 0.00 0.00 0.00 99 1011.7
20260507160528 20 0.0 0.0 0.00 0.00 0.00 99 1011.7
20260507160020 21 0.0 0.0 0.00 0.00 0.00 99 1011.8
20260507155520 20 0.0 0.0 0.00 0.00 0.00 99 1011.7
20260507155004 21 0.0 0.0 0.00 0.00 0.00 99 1011.7
20260507154455 21 0.0 0.0 0.00 0.00 0.00 99 1011.6
20260507153952 21 0.0 0.0 0.00 0.00 0.00 99 1011.6
20260507153444 22 0.0 0.0 0.00 0.00 0.00 52 1011.5
20260507152935 23 0.0 0.0 0.00 0.00 0.00 1011.4
20260507152435 25 0.0 0.0 0.00 0.00 0.00 99 1011.3
20260507151919 25 0.0 0.0 0.00 0.00 0.00 1011.3
20260507151411 25 0.0 0.0 0.00 0.00 0.00 1011.3
20260507150907 25 0.0 0.0 0.00 0.00 0.00 1011.3
20260507150401 25 0.0 0.0 0.00 0.00 0.00 1011.2
20260507145851 25 0.0 0.0 0.00 0.00 0.00 1011.3
20260507145351 25 0.0 0.0 0.00 0.00 0.00 1011.4
20260507144835 24 0.0 0.0 0.00 0.00 0.00 1011.4
20260507144327 24 0.0 0.0 0.00 0.00 0.00 1011.5
20260507143819 26 0.0 0.0 0.00 0.00 0.00 1011.6
20260507143310 25 0.0 0.0 0.00 0.00 0.00 1011.7
20260507142802 25 0.0 0.0 0.00 0.00 0.00 1011.7
20260507142306 25 0.0 0.0 0.00 0.00 0.00 1011.8
20260507141746 25 0.0 0.0 0.00 0.00 0.00 1011.9
20260507141238 24 0.0 0.0 0.00 0.00 0.00 1011.9
20260507140729 25 0.0 0.0 0.00 0.00 0.00 1012.0
20260507140221 25 0.0 0.0 0.00 0.00 0.00 27 1011.9
20260507135713 25 0.0 0.0 0.00 0.00 0.00 13 1012.0
20260507135213 25 0.0 0.0 0.00 0.00 0.00 48 1012.1
20260507134657 25 0.0 0.0 0.00 0.00 0.00 39 1012.2
20260507134149 24 0.0 0.0 0.00 0.00 0.00 38 1012.3
20260507133640 23 0.0 0.0 0.00 0.00 0.00 1012.4
20260507133132 25 0.0 0.0 0.00 0.00 0.00 18 1012.5
20260507132624 25 0.0 0.0 0.00 0.00 0.00 1012.6
20260507132124 25 0.0 0.0 0.00 0.00 0.00 1012.7
20260507131608 25 0.0 0.0 0.00 0.00 0.00 1012.8
20260507131104 24 0.0 0.0 0.00 0.00 0.00 1012.8
20260507130556 25 0.0 0.0 0.00 0.00 0.00 1013.0
20260507130048 24 0.0 0.0 0.00 0.00 0.00 15 1013.0
20260507125540 23 0.0 0.0 0.00 0.00 0.00 47 1013.1
20260507125040 23 0.0 0.0 0.00 0.00 0.00 31 1013.1
20260507124524 23 0.0 0.0 0.00 0.00 0.00 51 1013.2
20260507124016 24 0.0 0.0 0.00 0.00 0.00 77 1013.2
20260507122959 24 0.0 0.0 0.00 0.00 0.00 83 1013.3
20260507122451 23 0.0 0.0 0.00 0.00 0.00 95 1013.4
20260507121951 23 0.0 0.0 0.00 0.00 0.00 99 1013.5
20260507121435 23 0.0 0.0 0.00 0.00 0.00 99 1013.5
20260507120937 24 0.0 0.0 0.00 0.00 0.00 99 1013.6
20260507120423 23 0.0 0.0 0.00 0.00 0.00 99 1013.6
20260507115915 23 0.0 0.0 0.00 0.00 0.00 99 1013.6
20260507114907 22 0.0 0.0 0.00 0.00 0.00 99 1013.8
20260507114351 22 0.0 0.0 0.00 0.00 0.00 99 1013.9
20260507113843 22 0.0 0.0 0.00 0.00 0.00 99 1013.9
20260507113335 22 0.0 0.0 0.00 0.00 0.00 99 1013.9
20260507112826 22 0.0 0.0 0.00 0.00 0.00 99 1014.0
20260507112318 21 0.0 0.0 0.00 0.00 0.00 99 1014.0
20260507111818 22 0.0 0.0 0.00 0.00 0.00 99 1014.1
20260507111302 20 0.0 0.0 0.00 0.00 0.00 99 1014.2
20260507110758 22 0.0 0.0 0.00 0.00 0.00 99 1014.4
20260507110250 22 0.0 0.0 0.00 0.00 0.00 99 1014.3
20260507105742 22 0.0 0.0 0.00 0.00 0.00 99 1014.4
20260507105234 21 0.0 0.0 0.00 0.00 0.00 99 1014.5
20260507104734 20 0.0 0.0 0.00 0.00 0.00 99 1014.6
20260507104217 21 0.0 0.0 0.00 0.00 0.00 99 1014.6
20260507103710 21 0.0 0.0 0.00 0.00 0.00 99 1014.6
20260507103201 20 0.0 0.0 0.00 0.00 0.00 99 1014.7
20260507102653 22 0.0 0.0 0.00 0.00 0.00 99 1014.7
20260507102145 21 0.0 0.0 0.00 0.00 0.00 99 1014.9
20260507101645 21 0.0 0.0 0.00 0.00 0.00 99 1014.9
20260507101129 20 0.0 0.0 0.00 0.00 0.00 99 1015.0
20260507100625 20 0.0 0.0 0.00 0.00 0.00 99 1015.1
20260507100117 19 0.0 0.0 0.00 0.00 0.00 99 1015.1
20260507095609 19 0.0 0.0 0.00 0.00 0.00 99 1015.2
20260507095101 19 0.0 0.0 0.00 0.00 0.00 99 1015.2
20260507094606 20 0.0 0.0 0.00 0.00 0.00 99 1015.3
20260507094049 20 0.0 0.0 0.00 0.00 0.00 99 1015.2
20260507093541 20 0.0 0.0 0.00 0.00 0.00 99 1015.3
20260507093033 20 0.0 0.0 0.00 0.00 0.00 99 1015.4
20260507092525 20 0.0 0.0 0.00 0.00 0.00 99 1015.4
20260507092017 19 0.0 0.0 0.00 0.00 0.00 99 1015.4
20260507091517 18 0.0 0.0 0.00 0.00 0.00 99 1015.3
20260507091000 18 0.0 0.0 0.00 0.00 0.00 99 1015.3
20260507090457 19 0.0 0.0 0.00 0.00 0.00 99 1015.2
20260507085949 19 0.0 0.0 0.00 0.00 0.00 99 1015.3
20260507085441 20 0.0 0.0 0.00 0.00 0.00 99 1015.4
20260507084933 21 0.0 0.0 0.00 0.00 0.00 99 1015.4
20260507084433 21 0.0 0.0 0.00 0.00 0.00 99 1015.5
20260507083408 21 0.0 0.0 0.00 0.00 0.00 99 1015.5
20260507082900 21 0.0 0.0 0.00 0.00 0.00 99 1015.5
20260507082352 22 0.0 0.0 0.00 0.00 0.00 99 1015.6
20260507081844 21 0.0 0.0 0.00 0.00 0.00 99 1015.6
20260507081349 19 0.0 0.0 0.00 0.00 0.00 99 1015.6
20260507080837 18 0.0 0.0 0.00 0.00 0.00 99 1015.7
20260507080329 18 0.0 0.0 0.00 0.00 0.00 99 1015.8
20260507075820 17 0.0 0.0 0.00 0.00 0.00 99 1015.7
20260507075312 16 0.0 0.0 0.00 0.00 0.00 99 1015.8
20260507074804 16 0.0 0.0 0.00 0.00 0.00 99 1015.8
20260507074304 15 0.0 0.0 0.00 0.00 0.00 99 1015.7
20260507073748 15 0.0 0.0 0.00 0.00 0.00 99 1015.9
20260507073240 14 0.0 0.0 0.00 0.00 0.00 99 1015.8
20260507072732 13 0.0 0.0 0.00 0.00 0.00 99 1015.8
20260507072223 13 0.0 0.0 0.00 0.00 0.00 99 1015.9
20260507071715 12 0.0 0.0 0.00 0.00 0.00 99 1016.0
20260507071215 12 0.0 0.0 0.00 0.00 0.00 99 1015.9
20260507070703 12 0.0 0.0 0.00 0.00 0.00 99 1016.1
20260507070155 11 0.0 0.0 0.00 0.00 0.00 99 1016.0
20260507065647 11 0.0 0.0 0.00 0.00 0.00 99 1016.0
20260507065138 10 0.0 0.0 0.00 0.00 0.00 99 1016.0
20260507064630 10 0.0 0.0 0.00 0.00 0.00 99 1016.1
20260507064130 10 0.0 0.0 0.00 0.00 0.00 99 1016.0
20260507063614 10 0.0 0.0 0.00 0.00 0.00 99 1016.0
20260507063106 9 0.0 0.0 0.00 0.00 0.00 99 1015.9
20260507062557 9 0.0 0.0 0.00 0.00 0.00 99 1015.9
20260507062049 8 0.0 0.0 0.00 0.00 0.00 99 1015.9
20260507061541 8 0.0 0.0 0.00 0.00 0.00 99 1015.9
20260507061041 8 0.0 0.0 0.00 0.00 0.00 99 1016.0
20260507060529 8 0.0 0.0 0.00 0.00 0.00 99 1016.0
20260507060021 7 0.0 0.0 0.00 0.00 0.00 99 1016.0